Regional Weather Roundup
Issued by NWS

Home | Current Version | Previous Version | Text Only | Print | Product List | Glossary Off
Versions: 1 2 3 4 5 6 7 8 9 10 11 12 13 14 15 16 17 18 19 20 21 22 23 24 25 26 27 28 29 30 31 32 33 34 35 36 37 38 39 40 41 42 43 44 45 46 47 48 49 50

000
ASUS43 KLSX 050410
RWRMO

WEATHER SUMMARY FOR MISSOURI
NATIONAL WEATHER SERVICE SPRINGFIELD MO
1100 PM CDT FRI SEP 04 2015

NOTE: "FAIR" INDICATES FEW OR NO CLOUDS BELOW 12,000 FEET WITH NO
       SIGNIFICANT WEATHER AND/OR OBSTRUCTIONS TO VISIBILITY.
       CURRENT SKY AND/OR WEATHER CONDITIONS ARE NOT AVAILABLE FOR
       CHILLICOTHE AND FARMINGTON.

MOZ001>031-035>038-043-044-053-054-050500-
...NORTHERN AND WESTERN MISSOURI...

CITY           SKY/WX    TMP DP  RH WIND       PRES   REMARKS
KANSAS CTY INT CLEAR     76  68  76 S8        29.98R
KANSAS C DTWN  CLEAR     83  68  60 S9        29.97R
LEE`S SUMMIT   CLEAR     80  67  64 S8        30.00R
ST JOSEPH      CLEAR     74  69  85 S3        29.96S
CHILLICOTHE      N/A     76  70  82 CALM      30.00R
KIRKSVILLE     CLEAR     75  68  78 S5        30.02R

$$
MOZ066>068-077>081-088>096-101>105-050500-
...SOUTHWEST MISSOURI...

CITY           SKY/WX    TMP DP  RH WIND       PRES   REMARKS
SPRINGFIELD    CLEAR     76  67  73 SE8       30.03S
JOPLIN         CLEAR     79  70  74 SE7       30.00S

$$
MOZ032>034-039>042-045>050-055>058-069>072-050500-
...CENTRAL MISSOURI...

CITY           SKY/WX    TMP DP  RH WIND       PRES   REMARKS
COLUMBIA       CLEAR     77  70  79 SE6       30.03R
JEFFERSON CITY CLEAR     76  71  85 SE5       30.01R
ROLLA          CLEAR     75  69  81 SE7       30.04R
SEDALIA        CLEAR     76  69  79 S8        30.02R
WHITEMAN AFB   CLEAR     75  69  80 S5        29.99S
WARRENSBURG    CLEAR     75  68  78 SE5       30.00R
OSAGE BEACH    CLEAR     75  66  73 SE3       30.03S

$$
MOZ051-052-059>065-050500-
...EAST CENTRAL MISSOURI...

CITY           SKY/WX    TMP DP  RH WIND       PRES   REMARKS
ST LOUIS INTL  CLEAR     83  69  62 SW3       30.04R
SPIRIT OF STL  CLEAR     73  72  96 CALM      30.03R
ST CHARLES     CLEAR     77  74  90 CALM      30.02R

$$
MOZ072>076-082>087-097>100-106>115-050500-
...SOUTH CENTRAL AND SOUTHEAST MISSOURI...

CITY           SKY/WX    TMP DP  RH WIND       PRES   REMARKS
CAPE GIRARDEAU CLEAR     74  72  93 E3        30.03R
FARMINGTON     CLEAR     73  72  94 CALM      30.09R
POPLAR BLUFF   CLEAR     73  71  93 CALM      30.02R FOG
WEST PLAINS    CLEAR     72  68  87 CALM      30.07S

$$



USA.gov is the U.S. government's official web portal to all federal, state and local government web resources and services.